Wind_Speed
14 16 17 17 17 18 17 17 17 18 20 21 22 23 23 24 24 25 25 25 25 26 27 28 29 31 32 34 37 38 41 42 42 44 45 46 51 55 56 57 59 60 60 60 60
14 15 18 18 18 17 17 17 17 18 19 20 21 21 23 24 24 24 24 25 25 26 27 28 29 30 32 34 35 38 41 42 42 44 46 48 52 55 58 61 62 64 65 64 64
14 16 17 19 20 19 18 18 19 19 20 20 21 21 22 23 24 24 25 26 26 27 29 29 31 33 34 36 38 41 43 43 45 45 47 48 49 55 58 60 63 63 66 63 64
14 15 18 20 21 22 21 21 20 20 21 21 22 23 24 24 25 26 27 28 28 29 31 32 33 34 35 37 39 41 44 46 47 48 51 50 51 56 57 59 64 67 67 68 68
17 17 16 18 21 23 24 24 23 23 23 23 23 23 24 24 26 27 27 27 29 31 32 33 35 36 37 38 40 42 44 48 49 51 52 51 54 56 58 62 65 67 73 72 75
22 20 20 19 20 21 22 24 25 25 24 24 25 25 25 26 27 28 29 30 31 32 34 35 36 37 38 40 42 45 46 48 51 53 53 53 55 55 57 65 67 69 76 75 77
26 25 24 24 24 24 23 24 24 25 25 26 26 27 28 29 30 30 31 32 33 34 35 36 38 40 42 45 48 49 51 52 53 53 53 54 56 56 57 62 64 69 71 77 80
28 28 28 29 29 28 27 27 27 28 29 29 30 31 31 32 32 33 33 34 36 37 37 38 40 42 44 46 49 51 52 52 51 52 51 54 59 54 58 63 67 70 71 73 79
30 32 31 31 32 31 32 32 32 32 32 33 34 34 35 35 36 36 36 37 38 39 40 42 43 45 47 49 52 52 52 53 52 53 52 55 57 55 58 63 66 69 66 74 79
28 30 34 36 35 34 35 35 35 35 35 36 37 38 37 38 39 39 40 41 42 43 45 47 48 49 51 52 52 52 53 54 54 55 55 55 56 56 56 60 61 64 68 73 79
34 33 32 33 35 38 38 38 38 39 39 39 40 41 42 42 42 42 43 44 45 46 48 49 51 52 53 52 53 55 56 55 55 56 56 56 56 55 54 53 55 62 68 74 81
37 37 38 38 39 36 39 42 42 42 42 41 41 42 42 43 44 44 45 46 47 49 51 52 52 52 51 53 55 57 58 58 56 57 56 54 52 51 50 49 51 57 62 68 73
37 38 41 42 43 43 43 43 44 46 46 45 45 45 45 46 47 49 49 50 51 51 51 52 52 51 53 55 57 57 58 58 56 54 50 46 44 43 45 45 46 45 49 47 54
28 30 33 35 38 43 47 48 48 48 47 47 48 49 50 51 52 52 53 53 52 51 51 51 52 53 54 54 53 53 54 52 49 45 42 40 35 37 37 37 33 31 34 38 41
18 23 26 32 36 35 36 41 46 50 51 50 51 52 52 52 53 54 54 53 51 51 51 50 51 51 49 47 47 46 44 41 39 35 33 29 32 28 30 30 28 25 25 29 36
21 22 25 28 30 34 35 36 36 38 42 47 50 52 52 52 53 53 52 50 49 49 48 45 44 42 42 40 36 34 33 32 31 31 29 25 29 20 30 29 27 27 23 24 26
25 24 25 24 25 30 34 36 38 38 37 35 39 43 44 45 46 45 44 43 42 43 40 38 35 34 34 32 30 30 31 32 32 34 36 34 29 28 29 28 28 26 25 24 21
29 29 29 25 24 29 34 35 35 37 38 38 37 34 35 37 37 38 38 36 36 35 33 33 33 33 33 31 29 31 32 32 32 35 38 38 34 33 30 28 28 27 26 26 25
31 30 31 31 28 28 29 31 32 33 36 37 34 33 34 35 35 36 35 34 34 35 33 34 33 32 33 32 32 31 32 32 33 35 38 37 36 34 33 30 30 29 30 27 25
36 34 33 32 30 28 26 29 31 32 35 36 36 35 35 38 39 39 39 40 37 38 37 37 37 37 37 37 37 36 35 35 36 35 36 35 33 30 30 30 31 31 30 30 30
39 36 35 34 34 32 30 28 30 34 34 37 39 40 40 37 37 36 35 35 37 39 39 39 41 42 41 41 40 39 40 38 37 36 34 34 31 28 28 29 29 30 31 29 25
41 40 39 38 39 38 36 32 32 33 36 37 37 40 42 41 39 41 42 41 38 33 30 28 33 34 40 44 43 42 44 42 37 35 33 30 31 29 25 25 22 19 19 21 24
47 44 44 44 43 43 41 36 35 35 34 36 35 33 33 34 38 42 44 45 45 43 39 38 37 36 33 33 33 32 38 39 36 33 31 29 27 28 25 21 21 22 25 29 33
54 52 49 49 48 47 45 41 37 37 36 37 39 37 34 33 34 36 41 45 47 47 47 44 39 33 31 30 33 36 39 36 33 31 28 28 26 28 26 25 28 30 33 35 38
64 61 57 54 54 51 49 46 42 40 39 39 41 40 38 38 37 38 41 43 46 47 47 47 45 40 37 36 37 39 42 35 31 29 28 28 26 28 28 29 31 33 36 40 43
71 68 63 58 56 53 51 47 45 44 42 42 42 44 41 39 42 42 44 45 47 44 46 47 46 45 44 43 42 41 40 31 31 30 30 29 28 28 29 31 34 38 42 47 51
69 64 61 58 55 54 52 50 47 46 44 43 44 45 44 43 44 45 45 46 47 44 41 44 43 42 45 45 44 44 31 28 30 31 30 29 29 29 32 36 40 44 49 51 56
Wind_Direction
245 239 232 231 232 235 235 236 235 234 235 236 237 239 240 241 241 242 245 245 245 248 248 247 247 248 249 250 251 252 252 250 247 246 240 249 256 251 249 251 247 247 249 250 250
251 239 231 227 224 224 227 229 231 232 232 235 237 238 239 241 243 244 247 249 248 249 248 248 247 248 248 249 250 252 253 253 252 249 246 243 248 253 253 251 251 250 253 252 251
262 246 236 227 224 223 224 226 230 233 236 237 239 240 242 245 248 251 252 254 254 254 256 255 254 254 254 254 255 256 256 255 254 252 252 249 246 248 251 254 254 255 255 254 253
272 259 249 238 230 229 232 236 240 242 241 243 244 246 249 251 252 254 255 258 259 259 260 261 261 260 260 261 260 261 263 261 259 258 256 253 250 250 249 249 251 251 251 253 254
267 267 262 252 245 241 240 241 243 245 247 248 250 251 253 254 255 256 256 257 258 258 260 261 263 265 265 265 264 265 265 267 266 265 264 260 257 252 251 249 249 250 248 245 248
260 260 262 260 255 252 251 250 250 250 251 251 252 252 253 256 259 260 258 259 260 261 263 264 266 267 268 268 269 270 269 270 270 269 268 267 263 258 258 249 247 247 249 250 248
264 259 256 257 258 256 254 254 256 255 253 254 255 256 258 261 263 263 263 263 264 266 266 268 269 269 271 273 274 274 274 273 272 270 268 267 263 261 260 262 257 252 250 248 250
265 261 259 256 256 257 257 257 256 256 258 259 260 262 264 266 266 266 265 266 268 269 270 272 273 274 275 277 279 279 278 276 274 272 270 269 268 266 264 261 257 255 252 254 251
264 263 261 259 258 257 257 257 258 258 259 261 262 263 264 264 265 266 266 266 267 271 272 274 275 277 278 279 281 280 279 278 275 275 272 273 273 268 265 262 258 258 256 255 255
272 267 263 262 261 259 257 256 256 258 258 259 261 263 263 264 265 266 267 267 269 272 275 276 278 280 282 282 282 282 282 280 279 278 277 275 274 271 266 263 260 257 255 252 253
273 270 267 268 267 262 262 261 260 260 259 259 260 262 264 264 265 266 268 270 273 275 277 279 281 282 282 283 284 285 283 283 282 282 281 280 278 275 269 262 256 255 255 252 249
270 267 265 266 267 265 263 262 262 262 263 262 263 263 263 265 267 268 269 272 275 277 278 279 280 281 283 283 284 284 284 285 284 284 283 283 280 276 272 267 262 260 259 253 251
270 267 266 264 263 262 261 262 261 262 262 262 262 262 263 264 266 268 270 273 275 276 278 280 281 282 282 282 284 285 285 285 285 285 284 279 276 272 267 264 264 268 266 257 247
274 272 271 270 267 264 262 260 259 260 261 262 262 262 263 264 266 269 271 273 275 278 279 279 280 281 282 284 284 283 284 285 284 283 281 280 272 270 269 270 273 278 276 267 255
287 288 284 277 268 270 270 267 263 262 262 262 262 262 263 265 267 269 272 275 276 277 278 280 281 283 284 283 282 283 283 284 285 284 285 280 279 279 278 277 282 288 287 278 265
277 293 298 292 280 271 271 271 270 268 265 262 263 264 265 267 268 270 273 274 276 277 279 280 281 282 282 281 281 281 282 285 291 292 290 286 284 277 280 280 285 289 297 298 287
276 292 297 297 292 279 277 277 277 270 268 271 272 268 268 268 269 271 272 273 274 276 279 280 278 278 279 278 280 285 289 291 293 294 292 293 290 281 280 286 287 290 293 296 303
278 284 285 293 296 286 279 280 283 273 266 270 272 271 269 268 269 269 268 269 272 275 277 276 277 278 278 279 283 288 291 294 294 291 288 286 288 288 284 284 287 290 287 287 292
277 281 282 283 291 293 287 283 283 280 271 267 273 271 268 268 267 267 268 267 267 272 272 272 273 274 277 280 281 282 289 295 303 288 288 285 285 288 286 283 281 283 284 287 287
277 280 279 278 283 284 289 294 283 279 276 270 266 269 271 269 271 272 271 268 267 267 267 268 270 272 275 279 281 284 288 293 299 293 287 286 282 285 285 280 275 274 274 275 277
279 278 280 279 280 279 282 289 283 274 274 273 269 267 266 269 274 277 279 278 273 270 270 270 271 271 274 278 281 286 292 293 294 293 285 284 283 280 281 279 273 270 272 279 283
276 279 280 279 278 278 281 283 282 281 272 272 272 270 270 270 270 274 279 278 276 274 275 275 276 280 276 273 278 286 287 287 291 289 281 277 280 281 280 278 276 274 276 279 282
275 277 278 277 277 276 278 280 279 279 278 269 270 272 272 271 270 271 274 276 276 274 275 277 279 281 288 275 273 287 294 288 287 286 276 272 273 279 276 269 272 276 278 283 286
275 277 277 277 275 275 274 276 276 276 275 275 268 269 271 271 273 274 273 273 273 272 272 272 275 277 276 281 283 287 302 289 287 282 273 270 271 268 266 263 271 273 276 281 283
274 276 275 274 273 271 272 275 273 273 273 276 273 269 268 272 275 278 279 278 275 271 269 268 267 271 273 280 286 288 298 286 284 279 272 273 274 259 262 262 270 275 282 286 289
272 273 273 271 269 267 269 271 272 272 271 274 275 271 272 271 274 277 278 280 281 277 268 264 264 266 268 274 283 287 291 278 277 274 275 278 276 264 270 276 283 288 291 293 293
266 267 266 265 263 264 266 267 269 270 269 274 275 275 271 273 275 277 280 281 285 281 272 262 261 263 266 272 278 288 276 271 267 269 273 276 274 274 280 285 288 290 291 296 298
Height
10858 10858 10859 10860 10861 10862 10864 10865 10866 10868 10870 10872 10874 10875 10877 10878 10880 10882 10883 10886 10887 10889 10891 10894 10896 10897 10899 10900 10902 10903 10905 10908 10913 10916 10920 10921 10917 10919 10921 10923 10926 10927 10927 10928 10931
10855 10855 10856 10857 10858 10859 10861 10862 10863 10865 10867 10868 10870 10871 10872 10873 10875 10877 10879 10880 10882 10883 10885 10887 10889 10890 10892 10893 10894 10894 10895 10898 10903 10906 10908 10913 10913 10909 10909 10909 10913 10916 10917 10919 10922
10852 10853 10853 10854 10855 10856 10858 10859 10860 10862 10863 10864 10865 10867 10868 10869 10870 10871 10873 10873 10875 10877 10877 10879 10881 10882 10883 10885 10885 10885 10886 10889 10891 10895 10897 10901 10904 10901 10901 10901 10901 10905 10905 10907 10906
10850 10850 10850 10851 10852 10853 10854 10855 10856 10858 10859 10859 10861 10862 10863 10863 10865 10866 10867 10868 10869 10870 10870 10871 10872 10874 10875 10876 10876 10876 10876 10878 10880 10883 10884 10891 10892 10890 10892 10891 10888 10890 10892 10892 10891
10846 10846 10846 10847 10848 10849 10850 10851 10851 10853 10853 10854 10855 10857 10857 10858 10859 10859 10861 10862 10862 10863 10863 10864 10865 10865 10866 10867 10867 10866 10868 10866 10868 10869 10871 10877 10877 10878 10880 10878 10875 10873 10870 10874 10872
10841 10841 10842 10842 10843 10843 10844 10845 10846 10847 10848 10849 10850 10851 10851 10851 10852 10853 10853 10853 10854 10855 10856 10857 10857 10857 10857 10856 10857 10855 10857 10856 10856 10856 10858 10860 10860 10861 10861 10855 10859 10858 10854 10861 10859
10836 10836 10836 10837 10837 10837 10838 10840 10841 10842 10843 10843 10844 10844 10845 10846 10846 10846 10846 10846 10846 10847 10848 10848 10848 10848 10847 10846 10845 10845 10844 10844 10844 10843 10844 10844 10842 10844 10846 10843 10844 10838 10843 10841 10844
10828 10829 10830 10830 10831 10832 10833 10834 10834 10835 10836 10836 10837 10837 10838 10838 10838 10839 10839 10839 10839 10839 10840 10840 10839 10839 10837 10836 10834 10833 10832 10830 10831 10830 10833 10829 10823 10833 10828 10825 10823 10822 10824 10825 10825
10820 10821 10822 10823 10824 10825 10826 10826 10827 10828 10828 10829 10829 10829 10830 10830 10830 10830 10830 10830 10830 10830 10830 10830 10830 10829 10827 10826 10822 10820 10818 10816 10817 10815 10817 10814 10809 10812 10809 10805 10805 10805 10814 10806 10805
10812 10812 10813 10813 10815 10817 10817 10818 10818 10819 10820 10820 10820 10820 10821 10821 10821 10821 10821 10822 10821 10821 10820 10820 10818 10817 10815 10813 10810 10808 10805 10802 10801 10799 10799 10798 10794 10792 10792 10787 10790 10789 10789 10790 10789
10805 10805 10805 10804 10806 10809 10808 10808 10810 10810 10811 10811 10811 10811 10811 10812 10812 10812 10813 10812 10812 10811 10810 10808 10807 10805 10803 10801 10797 10794 10790 10788 10787 10783 10782 10780 10777 10774 10771 10772 10771 10768 10768 10767 10768
10796 10796 10796 10796 10796 10799 10798 10799 10799 10800 10801 10802 10802 10801 10802 10802 10802 10803 10803 10802 10802 10801 10799 10797 10795 10793 10792 10789 10784 10780 10775 10774 10773 10769 10767 10763 10761 10757 10754 10754 10754 10751 10749 10748 10747
10785 10785 10785 10785 10786 10788 10788 10788 10789 10789 10790 10791 10790 10790 10791 10792 10792 10791 10791 10791 10790 10790 10788 10786 10784 10782 10779 10776 10771 10767 10762 10759 10759 10754 10751 10749 10747 10744 10741 10740 10739 10735 10728 10727 10727
10777 10776 10776 10775 10776 10776 10777 10777 10777 10778 10779 10779 10779 10779 10780 10781 10780 10780 10779 10779 10778 10778 10776 10775 10772 10769 10767 10764 10759 10755 10751 10746 10744 10742 10740 10735 10736 10731 10729 10726 10725 10721 10716 10712 10710
10770 10768 10767 10766 10766 10766 10765 10765 10766 10767 10767 10767 10767 10767 10768 10769 10768 10767 10768 10768 10767 10765 10763 10763 10759 10756 10755 10752 10748 10744 10740 10735 10733 10731 10728 10727 10722 10721 10717 10715 10713 10710 10707 10704 10701
10763 10762 10760 10758 10757 10756 10756 10756 10755 10755 10755 10754 10754 10755 10756 10757 10755 10756 10756 10755 10754 10751 10751 10751 10748 10746 10744 10741 10738 10734 10731 10728 10725 10721 10718 10716 10713 10714 10707 10706 10705 10701 10699 10696 10693
10754 10755 10753 10751 10750 10747 10746 10746 10746 10746 10744 10743 10744 10744 10744 10744 10743 10744 10745 10744 10742 10741 10742 10740 10738 10737 10735 10733 10731 10727 10724 10722 10719 10714 10709 10707 10705 10703 10700 10699 10697 10695 10692 10688 10686
10747 10747 10745 10745 10743 10739 10737 10737 10736 10734 10735 10735 10735 10734 10733 10732 10733 10733 10734 10734 10732 10732 10732 10731 10730 10729 10726 10724 10723 10720 10717 10715 10712 10708 10701 10697 10695 10694 10692 10691 10689 10687 10684 10681 10679
10738 10737 10736 10736 10735 10732 10730 10728 10727 10725 10725 10726 10727 10726 10724 10724 10724 10724 10725 10725 10725 10724 10724 10723 10722 10720 10717 10716 10714 10713 10710 10707 10704 10699 10693 10690 10686 10685 10683 10682 10680 10678 10676 10674 10671
10727 10727 10727 10727 10727 10725 10723 10721 10718 10716 10714 10716 10718 10717 10716 10715 10715 10716 10717 10716 10717 10716 10715 10715 10713 10711 10709 10707 10704 10703 10701 10699 10696 10690 10685 10682 10679 10677 10673 10672 10671 10670 10668 10666 10664
10716 10717 10717 10717 10716 10715 10715 10714 10711 10708 10707 10705 10706 10707 10708 10708 10707 10706 10705 10705 10705 10706 10706 10705 10702 10702 10701 10697 10695 10693 10691 10689 10687 10681 10677 10673 10671 10669 10665 10662 10661 10660 10660 10659 10658
10705 10706 10705 10706 10706 10705 10705 10704 10701 10699 10698 10698 10696 10696 10697 10698 10698 10697 10695 10694 10694 10695 10695 10694 10692 10691 10690 10687 10685 10684 10680 10679 10677 10673 10668 10665 10662 10660 10659 10657 10655 10654 10654 10653 10651
10693 10694 10693 10694 10694 10693 10694 10693 10691 10689 10688 10688 10688 10688 10688 10688 10688 10686 10684 10682 10683 10684 10684 10684 10682 10681 10680 10677 10676 10674 10671 10668 10667 10663 10659 10657 10656 10653 10652 10650 10650 10649 10647 10645 10643
10679 10681 10682 10681 10681 10681 10681 10680 10679 10678 10678 10678 10678 10679 10679 10678 10678 10676 10674 10672 10671 10672 10672 10672 10672 10671 10671 10669 10668 10665 10662 10658 10657 10653 10651 10649 10649 10647 10646 10645 10644 10642 10640 10637 10634
10663 10665 10667 10667 10666 10667 10668 10667 10666 10666 10666 10666 10666 10667 10668 10668 10667 10665 10663 10661 10659 10659 10659 10660 10661 10661 10660 10659 10657 10656 10653 10649 10647 10644 10643 10642 10642 10641 10640 10639 10637 10634 10631 10627 10623
10646 10649 10650 10653 10650 10651 10653 10653 10652 10652 10653 10654 10654 10654 10655 10656 10656 10654 10652 10650 10647 10646 10645 10647 10648 10650 10649 10648 10647 10645 10643 10641 10638 10636 10635 10635 10634 10633 10632 10630 10627 10623 10620 10615 10610
10625 10629 10632 10634 10636 10636 10637 10638 10639 10638 10639 10640 10641 10642 10642 10643 10642 10641 10639 10638 10635 10633 10633 10633 10636 10638 10639 10637 10637 10635 10633 10632 10631 10629 10629 10628 10627 10625 10624 10621 10618 10614 10608 10602 10596